GSAT0213 (PRN E04)

Last updated on Sun Jul 21 2024 00:03:08 GMT+0000 (Coordinated Universal Time)

1 41861U 16069C 24202.10732410 -.00000008 00000+0 00000+0 0 9997 2 41861 55.1035 120.4074 0003724 293.3854 66.5706 1.70474280 47632

Satellite not in orbit

GSAT0213 (PRN E04)